Regional Weather Roundup
Issued by NWS Portland, ME

Home | Current Version | Previous Version | Text Only | Print | Product List | Glossary On
Versions: 1 2 3 4 5 6 7 8 9 10 11 12 13 14 15 16 17 18 19 20 21 22 23 24 25 26 27 28 29 30 31 32 33 34 35 36 37 38 39 40 41 42 43 44 45 46 47 48 49 50
000
ASUS41 KGYX 012310
RWRGYX
WEATHER ROUNDUP FOR MAINE AND NEW HAMPSHIRE
NATIONAL WEATHER SERVICE GRAY ME
600 PM EST SUN FEB 01 2015

MEZ002-005-006-010-012-015-018-020-021-024-026-027-029-020000-
MAINE

CITY           SKY/WX    TMP DP  RH WIND       PRES   REMARKS
PORTLAND       CLEAR     18  -7  32 NW7       30.13R
SANFORD        CLEAR     16  -8  35 W7G17     30.12S
BAR HARBOR     CLEAR     10   0  61 W7        30.07R
WISCASSET      CLEAR     13  -9  37 CALM      30.14R
ROCKLAND       CLEAR     12  -4  48 W9G17     30.10R
FRYEBURG       PTCLDY     7  -8  50 CALM      30.11R
LEWISTONAUBURN CLEAR     12 -11  34 NW3       30.12R
AUGUSTA        CLEAR     10 -10  40 W9G20     30.11R
WATERVILLE     CLEAR     10 -11  37 NW10      30.07R WCI  -3
BANGOR         PTCLDY     8  -8  48 W6        30.08R
GREENVILLE       N/A     -4 -13  65 NW15G23   29.95R WCI -25
MILLINOCKET    CLEAR      2 -12  52 NW17G28   30.05R WCI -18
HOULTON        CLEAR      2 -14  47 NW10      29.97R WCI -14
PRESQUE ISLE   CLEAR      0 -18  42 NW17G26   29.97R WCI -21
FRENCHVILLE    CLEAR     -8 -22  50 NW18G28   29.91R WCI -32
CARIBOU        CLEAR     -3 -18  48 NW9       29.96R
$$

NHZ002-005-008-009-011-012-014-020000-
NEW HAMPSHIRE

CITY           SKY/WX    TMP DP  RH WIND       PRES   REMARKS
PORTSMOUTH     MOCLDY    19  -9  29 NW13      30.13R WCI   5
ROCHESTER      CLEAR     17  -8  32 W7        30.12R
NASHUA         CLEAR     21  -2  36 N9        30.15R
MANCHESTER     MOCLDY    18  -3  39 N7        30.13R
CONCORD        CLEAR     17  -8  32 NW7       30.14S
LACONIA        CLEAR     12  -6  44 CALM      30.11S
PLYMOUTH       FAIR      11  -4  50 CALM      30.15F
BERLIN         PTCLDY     3 -13  47 VRB5      30.09R
WHITEFIELD     PTCLDY    -2 -10  69 CALM      30.13R
JAFFREY        CLEAR     17  -3  41 CALM      30.08S
KEENE          PTCLDY    18   0  45 N5        30.12S
LEBANON        PTCLDY    13  -9  37 N7        30.15S
MT WASHINGTON  PTCLDY   -11 -24  53 NW63        N/A  WCI -50
$$

VTZ005-007-008-020000-
VERMONT

CITY           SKY/WX    TMP DP  RH WIND       PRES   REMARKS
ST JOHNSBURY     N/A      5  -9  52 MISG      30.17R
MONTPELIER     PTCLDY     3 -11  52 NE5       30.17S
BURLINGTON     PTCLDY     4 -10  52 N5        30.24F
$$

MAZ007-012-024-CTZ003-RIZ002-NYZ038-NYZ072-020000-
SOUTHERN NEW ENGLAND AND NY

CITY           SKY/WX    TMP DP  RH WIND       PRES   REMARKS
BOSTON         MOCLDY    26   1  34 NW7       30.15R
WORCESTER      PTCLDY    30   4  33 NW6       30.07S
NANTUCKET      CLEAR     28  15  58 W7        30.14R
PROVIDENCE     PTCLDY    30   9  41 CALM      30.13S
HARTFORD       CLOUDY    30   8  39 N3        30.12S
ALBANY         CLOUDY    21   5  50 N9        30.15S
NEW YORK CITY  CLOUDY    35  20  54 W5        30.12F
$$

ANZ081-ANZ082-ANZ150-NHZ014-MEZ023>029-020000-
COASTAL MARINE OBSERVATIONS

STATION/POSITION TIME  TEMP    WIND        PRES    WAVE
                       AIR SEA DIR/SP/G            HT/PER
                 (UTC) (F)     (DEG/KT/KT) (MB)    (FT/S)
MOUNT DESERT ROC 2300   21                 1017.4R
MATINICUS ROCK   2300          310/ 26/ 31 1019.0R
PORTLAND WX BUOY 2250   22 41  320/ 12/ 14 1020.3R   2/ 3
WELLS            2200   20 31  320/  8/ 14 1019.5R
ISLE OF SHOALS   2300   22     310/ 23/ 26 1019.9R
JEFFREYS LEDGE   2221      44                N/A     5/ 5
CASHES LEDGE BUO 2250   26 44  310/ 21/ 27 1018.9R   5/ 6
$$

.............KEY..............
   WCI - WIND CHILL
   TC  - TEMPERATURE IN CELSIUS
   VSB - VISIBILITY IN MILES
   HX  - HEAT INDEX
   FAIR- INDICATES FEW OR NO CLOUDS BELOW 12,000 FT, WITH NO
         SIGNIFICANT WEATHER AND/OR OBSTRUCTIONS TO VISIBILITY.




USA.gov is the U.S. government's official web portal to all federal, state and local government web resources and services.